Weather History for West Palm Beach, FL

Change the Weather History Date:

Saturday, March 10, 2012

  Actual Average Record
Temperature  
Mean Temperature 75 °F 70 °F  
Max Temperature 82 °F 78 °F 91 °F (1964)
Min Temperature 67 °F 62 °F 36 °F (1914)
Degree Days  
Heating Degree Days 0 1  
Month to date heating degree days 3 10  
Since 1 July heating degree days 112 215  
Cooling Degree Days 10 6  
Month to date cooling degree days 75 58  
Year to date cooling degree days 391 293  
Growing Degree Days 24 (Base 50)    
Moisture  
Dew Point 67 °F    
Average Humidity 78    
Maximum Humidity 100    
Minimum Humidity 55    
Precipitation  
Precipitation 0.02 in 0.16 in 1.25 in (1986)
Month to date precipitation 0.50 1.37  
Year to date precipitation 4.70 7.32  
Snow  
Snow 0.00 in - - ()
Month to date snowfall 0.0  
Since 1 July snowfall 0.0  
Snow Depth 0.00 in    
Sea Level Pressure  
Sea Level Pressure 30.15 in    
Wind  
Wind Speed 9 mph (ESE)    
Max Wind Speed 20 mph    
Max Gust Speed 23 mph    
Visibility 10 miles    
Events Rain , Thunderstorm    
T = Trace of Precipitation, MM = Missing Value Source: NWS Daily Summary

Daily Weather History Graph

Daily Weather History Graph

Search for Another Location

Airport:

Trip Planner

Search our weather history database for the weather conditions in past years. The results will help you decide how hot, cold, wet, or windy it might be!

Date:

Astronomy

Mar. 10, 2012 Rise Set
Actual Time 6:34 AM EST 6:26 PM EST
Civil Twilight 6:11 AM EST 6:49 PM EST
Nautical Twilight 5:44 AM EST 7:16 PM EST
Astronomical Twilight 5:17 AM EST 7:43 PM EST
Moon 9:12 PM EST (3/10) 7:49 AM EST (3/10)
Length of Visible Light 12h 38m
Length of Day
11h 52m
Waning Gibbous, 93% of the Moon is Illuminated
Mar 10
Waning Gibbous
Mar 14
Last Quarter
Mar 22
New
Mar 30
First Quarter
Apr 6
Full

Hourly Weather History & Observations

Time (EST) Temp. Heat Index Dew Point Humidity Pressure Visibility Wind Dir Wind Speed Gust Speed Precip Events Conditions
12:53 AM 71.1 °F - 68.0 °F 90% 30.14 in 10.0 mi WNW 5.8 mph - N/A   Mostly Cloudy
1:53 AM 70.0 °F - 68.0 °F 93% 30.10 in 10.0 mi SW 5.8 mph - N/A   Mostly Cloudy
2:53 AM 70.0 °F - 68.0 °F 93% 30.08 in 10.0 mi WSW 6.9 mph - N/A   Mostly Cloudy
3:53 AM 71.1 °F - 66.9 °F 87% 30.10 in 10.0 mi Calm Calm - N/A   Mostly Cloudy
4:53 AM 70.0 °F - 66.9 °F 90% 30.11 in 10.0 mi NNW 4.6 mph - N/A   Mostly Cloudy
5:53 AM 68.0 °F - 66.0 °F 93% 30.12 in 10.0 mi NW 4.6 mph - N/A   Mostly Cloudy
6:53 AM 66.9 °F - 66.0 °F 97% 30.14 in 10.0 mi NW 5.8 mph - N/A   Mostly Cloudy
7:53 AM 72.0 °F - 68.0 °F 87% 30.16 in 10.0 mi NW 5.8 mph - N/A   Mostly Cloudy
8:53 AM 75.0 °F - 66.0 °F 73% 30.17 in 10.0 mi Variable 3.5 mph - N/A   Mostly Cloudy
9:53 AM 75.9 °F - 66.9 °F 74% 30.18 in 10.0 mi SE 17.3 mph - N/A   Mostly Cloudy
10:53 AM 77.0 °F - 64.9 °F 66% 30.18 in 10.0 mi SE 16.1 mph - N/A   Scattered Clouds
11:53 AM 79.0 °F - 63.0 °F 58% 30.17 in 10.0 mi SSE 12.7 mph - N/A   Scattered Clouds
12:53 PM 80.1 °F 81.7 °F 64.0 °F 58% 30.15 in 10.0 mi SE 12.7 mph - N/A   Scattered Clouds
1:53 PM 82.0 °F 83.4 °F 64.0 °F 54% 30.13 in 10.0 mi SE 11.5 mph - N/A   Scattered Clouds
2:14 PM 78.8 °F - 62.6 °F 57% 30.12 in 10.0 mi SE 13.8 mph - N/A Thunderstorm Thunderstorm
2:53 PM 71.1 °F - 66.9 °F 87% 30.14 in 7.0 mi NNW 8.1 mph 23.0 mph 0.00 in Rain , Thunderstorm Light Thunderstorms and Rain
3:43 PM 71.6 °F - 69.8 °F 94% 30.13 in 10.0 mi North 9.2 mph - 0.02 in   Mostly Cloudy
3:53 PM 72.0 °F - 69.1 °F 91% 30.14 in 10.0 mi NE 3.5 mph - 0.02 in   Mostly Cloudy
4:53 PM 75.0 °F - 68.0 °F 79% 30.14 in 10.0 mi ESE 8.1 mph - N/A   Mostly Cloudy
5:53 PM 75.9 °F - 66.9 °F 74% 30.12 in 10.0 mi SE 9.2 mph - N/A   Mostly Cloudy
6:53 PM 75.0 °F - 66.9 °F 76% 30.14 in 10.0 mi SE 8.1 mph - N/A   Mostly Cloudy
7:53 PM 75.0 °F - 66.9 °F 76% 30.15 in 10.0 mi ESE 11.5 mph - N/A   Mostly Cloudy
8:53 PM 75.0 °F - 66.0 °F 73% 30.17 in 10.0 mi East 12.7 mph - N/A   Mostly Cloudy
9:43 PM 75.2 °F - 66.2 °F 73% 30.19 in 9.0 mi East 9.2 mph - 0.00 in Rain Light Rain
9:53 PM 73.0 °F - 68.0 °F 84% 30.19 in 10.0 mi SSE 9.2 mph - 0.00 in Rain Light Rain
10:53 PM 73.9 °F - 66.9 °F 79% 30.19 in 10.0 mi East 10.4 mph 17.3 mph 0.00 in   Mostly Cloudy
11:53 PM 75.0 °F - 66.0 °F 73% 30.19 in 10.0 mi ENE 10.4 mph - N/A   Mostly Cloudy